Regional Weather Roundup
Issued by NWS Upton, NY

Current Version | Previous Version | Text Only | Print | Product List | Glossary On
Versions: 1 2 3 4 5 6 7 8 9 10 11 12 13 14 15 16 17 18 19 20 21 22 23 24 25 26 27 28 29 30 31 32 33 34 35 36 37 38 39 40 41 42 43 44 45 46 47 48 49 50
000
ASUS41 KOKX 030304
RWROKX

REGIONAL WEATHER ROUNDUP
NATIONAL WEATHER SERVICE NEW YORK NY
1100 PM EDT MON MAY 02 2016

NOTE: "FAIR" INDICATES FEW OR NO CLOUDS BELOW 12,000 FEET WITH NO
SIGNIFICANT WEATHER AND/OR OBSTRUCTIONS TO VISIBILITY.

NYZ071-072-176-178-NJZ106-104-030400-
NEW YORK CITY METRO AREA


CITY           SKY/WX    TMP DP  RH WIND       PRES   REMARKS
CENTRAL PARK   CLOUDY    57  51  80 N3        29.96S
LAGUARDIA APRT CLOUDY    56  50  80 CALM      29.93S
KENNEDY INTL   CLOUDY    52  49  89 E3        29.95S
NEWARK/LIBERTY CLOUDY    55  52  89 NE6       29.93R
BRNX BOT. GARD   N/A     54  52  94 NE1       29.96R
TETERBORO      CLOUDY    54  49  83 CALM      29.93R
$$

NYZ177-179-078>081-030400-
LONG ISLAND NEW YORK

CITY           SKY/WX    TMP DP  RH WIND       PRES   REMARKS
FARMINGDALE    CLOUDY    52  49  89 CALM      29.94R
ISLIP          CLOUDY    50  47  89 CALM      29.94R
SHIRLEY        MOCLDY    48  46  93 CALM      29.95R FOG
RIVERHEAD        N/A     46  46 100 CALM      29.95S
WESTHAMPTON    FOG       43  32  65 CALM      29.97R VSB 1/4
EAST HAMPTON   FOG       47  47  99 CALM      29.94S VSB 1/4
MONTAUK POINT    N/A     47  46  97 CALM      29.95F
$$

NYZ052-065-067-030400-
HUDSON VALLEY

CITY           SKY/WX    TMP DP  RH WIND       PRES   REMARKS
WHITE PLAINS   CLOUDY    51  50  96 CALM      29.94R FOG
NEWBURGH       PTCLDY    52  52 100 E7        29.94R
MONTGOMERY     CLOUDY    51  49  92 NE3       29.93R
POUGHKEEPSIE   CLOUDY    52  49  89 CALM      29.93S
ALBANY         CLOUDY    49  45  86 NW8       29.93F
$$

NJZ001-105-106-008-010-013-015-019>022-104-030400-
NEW JERSEY

CITY           SKY/WX    TMP DP  RH WIND       PRES   REMARKS
NEWARK/LIBERTY CLOUDY    55  52  89 NE6       29.93R
TETERBORO      CLOUDY    54  49  83 CALM      29.93R
CALDWELL       PTCLDY    53  50  89 CALM      29.95R
MORRISTOWN     CLOUDY    50  48  93 CALM      29.95R FOG
SOMERVILLE     CLOUDY    52  51  97 CALM      29.93R FOG
SUSSEX         CLOUDY    52  49  89 SW3       29.95R
ANDOVER          N/A     54  51  90 CALM      29.94R
TRENTON        LGT RAIN  57  54  89 N6        29.92S FOG
MILLVILLE      LGT RAIN  56  54  93 E8        29.90F
ATLANTIC CITY  LGT RAIN  54  52  93 E7        29.92S
WRIGHTSTOWN    NOT AVBL
TOMS RIVER     CLOUDY    54  52  94 NE5       29.94R
BELMAR         CLOUDY    52  51  97 CALM      29.96R
$$

PAZ047>061-062-071-030400-
EASTERN PENNSYLVANIA

CITY           SKY/WX    TMP DP  RH WIND       PRES   REMARKS
PHILADELPHIA   LGT RAIN  60  55  83 E6        29.92R
ALLENTOWN      CLOUDY    57  53  86 CALM      29.93R
SCRANTON       CLOUDY    52  45  77 NE6       29.95S
$$

CTZ002-004>006-009-010-012-RIZ004-006-007-MAZ004-011-015-030400-
SOUTHERN NEW ENGLAND
 IN CT

CITY           SKY/WX    TMP DP  RH WIND       PRES   REMARKS
BRADLEY INTL   CLOUDY    49  48  97 CALM      29.93F
HARTFORD       PTCLDY    49  47  93 CALM      29.93F FOG
DANBURY        CLOUDY    48  46  93 SW6       29.95S
WTRBRY/OXFORD    N/A     48  45  87 N6        29.94F
BRIDGEPORT     PTCLDY    52  49  89 CALM      29.95R FOG
MERIDEN        PTCLDY    49  47  93 CALM      29.93F
NEW HAVEN      MOCLDY    48  46  93 CALM      29.93F FOG
CHESTER        FAIR      48  48 100 CALM      29.93F FOG
GROTON         CLOUDY    46  46 100 CALM      29.94S FOG
WILLIMANTIC    CLOUDY    49  46  90 CALM      29.93F FOG

 IN RI

CITY           SKY/WX    TMP DP  RH WIND       PRES   REMARKS
PROVIDENCE     CLOUDY    52  47  83 NW6       29.95R
BLOCK ISLAND   PTCLDY    49  48  97 W6        29.95S
WESTERLY       CLOUDY    49  46  90 SW3       29.95R FOG

 IN MA

CITY           SKY/WX    TMP DP  RH WIND       PRES   REMARKS
BOSTON         CLOUDY    47  43  86 N7        29.95F
WORCESTER      CLOUDY    46  44  93 N5        29.92F
WESTFIELD      CLOUDY    47  45  93 CALM      29.93F
PROVINCETOWN   CLOUDY    46  44  93 N9        29.95F
NANTUCKET      CLOUDY    53  49  86 N15       29.92R
$$

ANZ330-335-338-340-345-350-353-355-030400-
COASTAL MARINE OBSERVATIONS


STATION/POSITION TIME  SKY/WX   TEMP    WIND        PRES    VSBY  WAVE
                                AIR SEA DIR/SP/G                  HT/PER
                 (UTC)          (F)     (DEG/KT/KT) (MB)    (MI)  (FT/S)
NY HARB ENTRANCE 0150            50 51  140/  4/  6 1013.3          3/ 9
20S FIRE ISLAND  0150            49 50  150/  6/  6 1013.5          4/ 9
GREAT SOUTH BAY  0200            52 56  230/  2/  4   N/A
23 SSW MONTAUK P 0250            46 48  260/  4/  4 1013.9          4/ 7
15 E BARNEGAT LI 0222               52                N/A           4/10
HUDSON CANYON    0150            50 49              1014.3          4/ 9
KINGS POINT      0200            55 53              1013.2
EXECUTION ROCKS  NOT AVBL
CENTRAL LI SOUND 0200            50      60/  2/  4   N/A           0
EASTERN LI SOUND 0200            49 47  250/  6/  8   N/A
ROBBINS REEF     0200            55                 1012.6
$$


>>>>>>>>>>>>>>>>>>>>>>>>>>>> KEY <<<<<<<<<<<<<<<<<<<<<<<<<<<
>                                                          <
>     SKY/WX - SKY CONDITION/PRESENT WEATHER               <
>     TMP    - TEMPERATURE IN FAHRENHEIT                   <
>     DP     - DEWPOINT IN FAHRENHEIT                      <
>     RH     - RELATIVE HUMIDITY IN PERCENT                <
>     WIND   - DIRECTION AND SPEED IN MPH                  <
>     PRES   - MEAN SEA LEVEL PRESSURE IN INCHES OF HG     <
>     WCI    - WIND CHILL INDEX                            <
>     VSB    - VISIBILITY IN MILES                         <
>     HX     - HEAT INDEX                                  <
>     TC     - TEMPERATURE IN CELSIUS                      <
>     VRB    - VARIABLE WIND DIRECTION                     <
>                                                          <
>>>>>>>>>>>>>>>>>>>>>>>>>>>> KEY <<<<<<<<<<<<<<<<<<<<<<<<<<<





USA.gov is the U.S. government's official web portal to all federal, state and local government web resources and services.